Location: Gebenbach
(49.5378°N, 11.8735°E)
Time: 02:56:00
(UTC+00:00)

Okean-O - Pass Details

Date: 29 October 2020
Orbit: 638 x 641 km, 98.2° (Epoch: 24 November)

Event Time Altitude Azimuth Distance (km) Brightness Sun altitude
Rises 16:23:37 0° 126° (SE) 2,940 5.7 -5.3°
Reaches altitude 10° 16:26:12 10° 111° (ESE) 2,035 4.7 -5.7°
Maximum altitude 16:29:34 22° 61° (ENE) 1,413 3.8 -6.2°
Drops below altitude 10° 16:32:58 10° 11° (NNE) 2,045 5.0 -6.7°
Sets 16:35:34 0° 357° (N) 2,959 5.9 -7.1°
